2022-07-05 14:20:52,11.36445,32.91706,163.4023,265.0139,43.01798,-87.90538,156.5,0.01,291.61,1,-4,49,26.9375,25.8125,27,26.375,26.5,25.9375,26.25,26,26.0625,25.8125,1411.544,30.74,0,3.6,23.3,,,,29.2701,,,0,4
2022-07-05 14:10:51,11.28114,32.8425,163.3979,280.1107,43.01809,-87.90538,154.1,0.02,326.38,1,-4,50,27.3125,26.3125,27.5,26.9375,27.125,26.4375,26.75,26.5,26.5,26.1875,1362.085,31.01,0,3.6,23.6,,,,29.2642,,,0,4
2022-07-05 14:00:51,11.36445,32.8425,164.7554,288.3219,43.01779,-87.9056,178.2,0.02,355.27,1,-4,51,29.875,28.5,30,28.625,29.8125,28.875,28.9375,29,28.6875,28.625,1534.383,31.79,0,3.6,24.8,,,,29.2642,,,0,4
2022-07-05 13:50:52,11.44222,32.77021,164.7758,289.7308,43.01791,-87.90542,168.1,0.01,2.51,1,-4,53,29.75,28.125,30,28,29,28.0625,28.25,28.5,28.3125,28.3125,2522.62,31.54,0,3.5,24.4,,,,29.2613,,,0,4
2022-07-05 13:40:51,11.43666,32.77021,163.3971,267.7515,43.01776,-87.90562,180.7,0.01,69.65,1,-4,52,28.4375,27.25,28.5,27.3125,28.6875,27.75,27.875,27.5,27.8125,27.5,2103.946,30.75,0,3.6,24,,,,29.2642,,,0,4
2022-07-05 13:30:51,11.45888,32.77021,162.0121,263.6128,43.01785,-87.90554,207.8,0.02,285.31,1,-4,54,27,26.0625,27.5,26.1875,28,27.125,26.875,26.5,26.9375,26.4375,2158.095,30.25,0,3.6,23.7,,,,29.2642,,,0,4
2022-07-05 13:20:51,11.30891,32.69565,162.0184,237.5354,43.01777,-87.90562,191.4,0.01,304.25,1,-4,52,25.5,24.875,26,25.25,25.75,25.125,25.3125,25,25.125,24.875,1163.152,29.87,0,3.6,23,,,,29.2642,,,0,4
2022-07-05 13:10:51,11.30335,32.69565,164.744,267.709,43.01778,-87.90564,182.8,0.01,161.69,1,-4,52,26.5,25.6875,26.5,26.0625,26.5625,25.9375,26.125,26,25.9375,25.625,1326.785,30.37,0,3.6,23.3,,,,29.2613,,,0,4
2022-07-05 13:00:51,11.38667,32.6595,168.8661,280.0705,43.01776,-87.90564,178,0.01,48.64,1,-4,50,27.1875,26.4375,27.5,26.6875,28.1875,27.5,27.4375,27,27.25,26.625,1488.783,30.88,0,3.6,24,,,,29.2613,,,0,4
2022-07-05 12:50:51,11.44777,32.62336,168.8709,263.6033,43.01771,-87.90564,178.7,0.02,145.57,1,-4,52,28.25,27.25,28.5,27.4375,28.4375,27.75,27.75,27.5,27.6875,27.3125,1811.655,30.91,0,3.6,24.1,,,,29.2613,,,0,4
2022-07-05 12:40:51,11.43111,32.58721,168.8687,296.5499,43.01777,-87.90567,186.9,0,326.02,1,-4,51,29.3125,28.125,29.5,28.25,29.1875,28.4375,28.5625,28.5,28.75,28.125,2291.747,30.95,0,3.6,23.8,,,,29.2642,,,0,4
2022-07-05 12:30:51,11.44222,32.58721,168.8917,278.74,43.01775,-87.90567,182.6,0.02,135.5,1,-4,53,28.5,27.0625,29,27.5625,27.5,26.9375,27.5,27.5,27.375,27.0625,2261.084,30.17,0,3.6,23,,,,29.2613,,,0,4
2022-07-05 12:20:51,11.44222,32.58721,167.5057,278.7185,43.01775,-87.90566,185,0.03,84.01,1,-4,50,28.125,26.625,28.5,27.25,27.125,26.625,27.125,27,27.0625,26.625,2250.245,30.08,0,3.6,22.9,,,,29.2613,,,0,4
2022-07-05 12:10:51,11.40889,32.58721,166.1453,274.6204,43.01771,-87.90559,186,0.02,162.84,1,-4,52,27.625,26.4375,28,26.875,26.9375,26.375,26.875,26.5,26.8125,26.4375,2051.749,30.01,0,3.6,22.9,,,,29.2613,,,0,4
2022-07-05 12:00:51,11.38667,32.5488,167.5052,254.0037,43.01772,-87.90563,180.8,0.02,9.22,1,-4,53,27.4375,26.25,28,26.6875,26.875,26.3125,26.75,26.5,26.75,26.3125,1758.344,29.9,0,3.6,22.8,,,,29.2642,,,0,4
2022-07-05 11:50:51,11.43111,32.5488,168.8922,271.8753,43.01774,-87.90563,184.8,0.02,29.85,1,-4,51,26.75,25.5625,27,26.1875,25.9375,25.5,26.0625,26,25.9375,25.5625,1827.91,29.9,0,3.7,22.3,,,,29.2613,,,0,4
2022-07-05 11:40:51,11.44222,32.51265,170.2533,262.2451,43.01774,-87.90568,184,0.03,136.4,1,-4,53,27.125,25.875,27.5,26.5,26.4375,26,26.5625,26.5,26.4375,25.9375,1863.781,30.18,0,3.6,22.5,,,,29.2613,,,0,4
2022-07-05 11:30:51,11.34779,32.51265,170.2504,267.7325,43.01773,-87.90566,186.3,0.02,133.75,1,-4,52,27.375,26.0625,27.5,26.6875,26.25,26.0625,26.5625,26.5,26.5,26,2219.504,30.29,0,3.6,22.2,,,,29.2583,,,0,4
2022-07-05 11:20:51,11.41444,32.51265,172.9893,266.3486,43.01773,-87.90563,186.7,0.01,265.5,1,-4,51,27.625,25.9375,28,26.75,26.125,25.8125,26.5625,26.5,26.25,25.875,2069.73,30.8,0,3.6,22.2,,,,29.2524,,,0,4
2022-07-05 11:10:51,11.40333,32.51265,172.9904,266.3503,43.01776,-87.90563,184.6,0.05,357.82,1,-4,52,27.1875,26.0625,27.5,26.5625,26.5,26.125,26.625,26.5,26.625,26.125,2244.754,31.19,0,3.6,22.6,,,,29.2524,,,0,4
2022-07-05 11:00:51,11.44222,32.47651,175.7478,259.5026,43.01777,-87.90567,187.5,0.03,183.78,1,-4,51,26.625,25.625,27,26.1875,26.0625,25.6875,26.25,26,26.0625,25.5,1723.033,31.45,0,3.6,22.6,,,,29.2524,,,0,4
2022-07-05 10:50:51,11.42,32.44036,178.4943,269.1144,43.01778,-87.90561,191.5,0.01,140.21,1,-4,50,26.875,25.75,27,26.25,26.25,26,26.5625,26,26.3125,25.5625,1927.221,31.9,0,3.6,22.7,,,,29.2495,,,0,4
2022-07-05 10:40:51,11.49221,32.40421,183.9933,270.4976,43.01781,-87.90559,175.9,0.03,47.28,1,-4,48,27.5625,26.3125,28,26.9375,26.875,26.5625,27.125,27,26.875,26.1875,1977.767,32.33,0,3.6,22.7,,,,29.2465,,,0,4
2022-07-05 10:30:51,11.47554,32.33191,186.7256,292.4452,43.01776,-87.90562,177.1,0.01,117.91,1,-4,48,27.0625,26,27,26.5625,26.4375,26.1875,26.75,26.5,26.625,25.8125,2418.08,32.44,0,3.6,22.7,,,,29.2435,,,0,4
2022-07-05 10:20:51,11.40333,32.29576,190.8609,292.4702,43.01778,-87.90564,179.1,0.01,305.5,1,-4,46,28.375,27.3125,28.5,28,27.625,27.5625,28.6875,28,28.125,27.25,1950.671,33.44,0,3.6,23.4,,,,29.2406,,,0,4
2022-07-05 10:10:51,11.40889,32.18732,193.6125,317.1949,43.01779,-87.90562,179.7,0.02,192.79,1,-4,45,29.5,28.375,28,29.6875,29.25,29.0625,31.3125,30.5,30.1875,28.75,2926.87,34.6,0,3.6,23.7,,,,29.2376,,,0,4
2022-07-05 10:00:52,11.45888,32.07888,193.6077,325.4257,43.01782,-87.90565,183.2,0.02,61.33,1,-4,46,30.1875,28.75,28,30.625,30.5625,30,32.5625,31.5,31.4375,29.75,4529.204,35.47,0,3.7,24.2,,,,29.2347,,,0,4
2022-07-05 09:50:51,11.4811,32.00884,192.2244,339.1387,43.01779,-87.9056,178,0.01,119.81,1,-4,46,31.1875,29.9375,28.5,31.8125,31.8125,31.3125,33.8125,32.5,32.8125,31,4467.911,35.28,0,3.6,24.8,,,,29.2317,,,0,4
2022-07-05 09:40:51,11.44222,31.93654,189.483,339.1471,43.01778,-87.90566,178.4,0.01,161.97,1,-4,45,30.625,29.6875,28.5,32.1875,31.6875,31.4375,33.625,32,32.6875,30.8125,4487.746,34.86,0,3.7,24.7,,,,29.2317,,,0,4
2022-07-05 09:30:51,11.45332,31.86425,186.7444,325.4295,43.01778,-87.90566,184.3,0.02,150.58,1,-4,47,30.4375,29.75,28.5,32.75,31.875,31.75,33.625,32,32.8125,30.8125,4375.939,34.87,0,3.6,24.7,,,,29.2347,,,0,4
2022-07-05 09:20:51,11.47554,31.79421,183.9887,324.0397,43.01783,-87.90557,181.5,0.03,43.67,1,-4,49,29.4375,28.875,27.5,31.9375,30.625,30.8125,32.5,31,31.6875,29.875,4393.961,34.38,0,3.7,24.3,,,,29.2317,,,0,4
2022-07-05 09:10:51,11.53664,31.72191,179.869,333.6501,43.01775,-87.90562,180.5,0.02,228.6,1,-4,49,29.1875,28.875,27.5,31.375,30.5,30.875,32.1875,31,31.625,29.75,4218.843,33.43,0,3.7,24.1,,,,29.2376,,,0,4
2022-07-05 09:00:51,11.43666,31.65187,175.7579,282.8604,43.01776,-87.90562,183.2,0.04,35.46,1,-4,48,27.6875,27.3125,26.5,29.75,28.5,29.0625,30.1875,29,29.875,28.1875,3695.502,32.06,0,3.7,23,,,,29.2376,,,0,4
2022-07-05 08:50:52,11.37556,31.57958,173.0033,266.3701,43.01779,-87.90564,188.2,0,359.55,1,-4,50,26.375,26.0625,26,26.75,26.25,26.5,27.4375,26.5,27,26.0625,2174.352,29.51,0,3.7,22.8,,,,29.2376,,,0,4
2022-07-05 08:40:52,11.49776,31.50955,170.2641,291.0966,43.01779,-87.90564,186.8,0.01,51.97,1,-4,50,26.625,26.5,26.5,27.375,27,27.3125,28.375,27.5,27.75,26.625,2239.242,30.53,0,3.7,23,,,,29.2376,,,0,4
2022-07-05 08:30:52,11.48665,31.43951,164.7574,288.3255,43.01778,-87.9057,181.6,0.02,337.66,1,-4,50,27.5,27.375,27.5,29.25,28.3125,28.75,30,28.5,29.3125,28.0625,3150.47,31.85,1,3.8,23.5,,,,29.2317,,,0,4
2022-07-05 08:20:52,11.41444,31.36947,155.1519,303.4387,43.01784,-87.90573,178.4,0.01,267.56,1,-4,51,27.5,27.4375,27.5,28.4375,28,28.25,30,28.5,28.5,27.4375,1484.904,29.61,2,3.7,23.7,,,,29.2317,,,0,4
2022-07-05 08:10:52,11.49776,31.29718,149.667,317.1842,43.01777,-87.90566,180.8,0.02,112.21,1,-4,51,28.4375,28.875,28.5,30.3125,30.375,31.0625,32.375,30,31.625,29.8125,3208.295,31.58,2,3.8,24.8,,,,29.2317,,,0,4
2022-07-05 08:00:52,11.46443,31.19325,140.0611,318.5704,43.01775,-87.90564,184.4,0.02,65.59,1,-4,51,28.625,28.9375,28.5,29.875,29.875,30.5625,32.3125,30,30.75,29.1875,2035.449,29.88,3,3.8,24.8,,,,29.2347,,,0,4
2022-07-05 07:50:52,11.43111,31.12321,122.209,313.0748,43.01777,-87.9056,181,0.01,40.55,1,-4,53,28.375,28.6875,28,29.0625,29.375,30.0625,31.25,29.5,30.8125,29,2650.787,29.38,6,3.8,25.3,,,,29.2347,,,0,4
2022-07-05 07:40:52,11.45332,31.05317,102.983,297.9641,43.01779,-87.90562,177.2,0.01,171.28,1,-4,55,26.875,27.125,26.5,26.25,26.875,27,28.25,28,28.4375,26.8125,1403.396,25.64,6,3.8,25.2,,,,29.2347,,,0,4
2022-07-05 07:30:52,11.43111,31.01702,101.6112,10.98499,43.01776,-87.90565,180.6,0.01,228.86,1,-4,55,26.375,26.375,26,25.625,26.25,26.3125,27.0625,27,27.25,26.25,766.3798,24.84,7,3.8,25,,,,29.2376,,,0,4
2022-07-05 07:20:51,11.42555,30.98314,101.6079,15.10387,43.01783,-87.90569,185.4,0.01,239.39,1,-4,55,25.4375,25.5,25.5,25,25.4375,25.375,25.8125,26,25.9375,25.375,451.1336,24.35,7,3.8,24.7,,,,29.2376,,,0,4
2022-07-05 07:10:52,11.38112,30.94925,101.6134,16.47785,43.01779,-87.90565,180.9,0.01,168.73,2,-4,56,25.0625,25.1875,25,24.6875,25.0625,24.9375,25.375,25.5,25.375,25,195.404,24.09,7,3.8,24.6,,,,29.2347,,,0,4
2022-07-05 07:00:52,11.42,30.91311,101.6134,10.98524,43.01777,-87.90566,181.2,0.02,291.85,1,-4,56,25.0625,25.125,25,24.6875,25.0625,24.9375,25.25,25,25.25,25,216.4106,23.96,7,3.8,24.6,,,,29.2347,,,0,4
2022-07-05 06:50:52,11.43111,30.84307,101.6134,12.35839,43.01782,-87.90566,180.8,0.02,325.65,1,-4,56,24.8125,24.875,25,24.4375,24.75,24.625,24.9375,25,25,24.75,188.5204,23.8,7,3.8,24.4,,,,29.2317,,,0,4
2022-07-05 06:40:51,11.40333,30.80918,102.9866,15.1047,43.01783,-87.90566,183.1,0.02,331.13,2,-4,55,24.5,24.5625,24.5,24.1875,24.5,24.3125,24.625,24.5,24.5625,24.5,152.3005,23.61,7,3.8,24.2,,,,29.2317,,,0,4
2022-07-05 06:30:52,11.42555,30.77529,104.3597,16.47785,43.01787,-87.90562,184.1,0.01,131.89,1,-4,58,24.3125,24.4375,24.5,24.0625,24.3125,24.1875,24.4375,24.5,24.4375,24.3125,126.9472,23.48,7,3.8,24,,,,29.2288,,,0,4
2022-07-05 06:20:52,11.43111,30.70525,104.3597,17.85101,43.01782,-87.90563,179.2,0.02,287.45,1,-4,56,24.1875,24.25,24.5,24,24.1875,24.0625,24.3125,24,24.25,24.1875,105.7594,23.38,7,3.8,23.9,,,,29.2258,,,0,4
2022-07-05 06:10:52,11.44222,30.67136,105.7328,13.73154,43.01782,-87.90566,182.9,0.03,170.93,2,-4,57,24,24.0625,24,23.8125,24,23.875,24,24,24,24,89.09858,23.25,7,3.8,23.8,,,,29.2258,,,0,4
2022-07-05 06:00:52,11.40889,30.63748,105.7327,13.73152,43.0178,-87.90565,175.4,0.02,56.61,2,-4,55,23.875,23.9375,24,23.75,23.875,23.6875,23.875,24,23.875,23.875,73.34285,23.17,7,3.8,23.8,,,,29.2199,,,0,4
2022-07-05 05:50:52,11.40333,30.56744,107.1055,13.73147,43.01776,-87.90566,173.1,0.05,244.73,2,-4,56,23.75,23.8125,24,23.625,23.75,23.5625,23.75,23.5,23.6875,23.75,132.3781,23.07,7,3.8,23.6,,,,29.217,,,0,4
2022-07-05 05:40:52,11.45332,30.56744,107.1045,13.73135,43.01775,-87.90566,191.4,0.02,33.28,2,-4,58,23.5625,23.6875,24,23.5,23.625,23.4375,23.5625,23.5,23.5,23.5625,43.82414,22.98,7,3.8,23.4,,,,29.217,,,0,4
2022-07-05 05:30:51,11.46443,30.49966,108.4745,13.73094,43.01775,-87.90567,188,0.03,19.27,2,-4,57,23.4375,23.5625,23.5,23.375,23.5,23.375,23.5,23.5,23.4375,23.5,69.90127,22.92,7,3.8,23.2,,,,29.214,,,0,4
2022-07-05 05:20:52,11.46443,30.49966,108.4792,13.73154,43.01777,-87.90563,177.4,0.02,95.91,2,-4,58,23.5,23.5625,23.5,23.375,23.5,23.3125,23.5,23.5,23.375,23.4375,25.17193,22.87,7,3.8,23.2,,,,29.2111,,,0,4
2022-07-05 05:10:52,11.48665,30.42962,109.8524,15.1047,43.01768,-87.90564,180,0.01,109.21,2,-4,58,23.3125,23.4375,23.5,23.3125,23.375,23.1875,23.1875,23,23.125,23.3125,61.21042,22.81,7,3.7,23.1,,,,29.2081,,,0,4
2022-07-05 05:00:51,11.48665,30.39573,109.8524,15.1047,43.01778,-87.90564,176.2,0.02,125.17,2,-4,58,23.3125,23.375,23.5,23.25,23.375,23.1875,23.3125,23.5,23.25,23.3125,59.39974,22.79,7,3.7,23.1,,,,29.2052,,,0,4
2022-07-05 04:50:51,11.44222,30.36184,109.8524,16.47785,43.01776,-87.90562,179.3,0.01,178.98,2,-4,57,23.3125,23.375,23.5,23.25,23.375,23.1875,23.3125,23.5,23.25,23.3125,56.14003,22.77,7,3.8,23.1,,,,29.2022,,,0,4
2022-07-05 04:40:52,11.49221,30.36184,109.8523,15.10469,43.01776,-87.90563,177.6,0.02,11.25,2,-4,59,23.3125,23.375,23.5,23.125,23.25,23.125,23.3125,23.5,23.25,23.25,-55.77775,22.73,7,3.8,23,,,,29.2022,,,0,4
2022-07-05 04:30:51,11.48665,30.32795,111.2253,15.10468,43.01778,-87.90566,181.3,0.01,313.4,2,-4,57,23,23.0625,23.5,23.0625,23.0625,22.9375,22.75,22.5,22.625,23,1.992046,22.69,7,3.8,22.9,,,,29.1963,,,0,4
2022-07-05 04:20:51,11.50331,30.29407,111.225,13.73148,43.01777,-87.90565,182.9,0,98.84,2,-4,58,22.9375,23,23.5,23.0625,22.9375,22.8125,22.6875,22.5,22.5625,22.9375,-56.32017,22.71,7,3.7,22.9,,,,29.1963,,,0,4
2022-07-05 04:10:51,11.45332,30.26018,111.224,16.47762,43.01778,-87.90563,182.1,0.01,158.27,2,-4,56,23.125,23.1875,23.5,23.1875,23.125,23,23,23,22.8125,23.125,-42.01357,22.75,7,3.8,23,,,,29.1933,,,0,4
2022-07-05 04:00:51,11.41444,30.22403,111.2216,16.47728,43.01781,-87.90562,187.4,0.01,41.97,2,-4,58,23.4375,23.5,24,23.4375,23.4375,23.3125,23.3125,23,23.125,23.5,-14.66852,22.76,7,3.8,23,,,,29.1933,,,0,4
2022-07-05 03:50:51,11.53664,30.22403,113.9719,15.1047,43.0178,-87.90562,188.1,0.01,252.7,2,-4,57,23.5,23.5,24,23.4375,23.5,23.3125,23.3125,23,23.1875,23.5,55.41479,22.73,7,3.8,23,,,,29.1933,,,0,4
2022-07-05 03:40:52,11.51442,30.19014,113.9719,15.1047,43.01784,-87.9056,189.2,0.03,138.49,2,-4,58,23.375,23.4375,23.5,23.375,23.5,23.3125,23.25,23,23.125,23.4375,2.17314,22.7,7,3.8,23,,,,29.1874,,,0,4
2022-07-05 03:30:52,11.50331,30.15625,115.345,15.1047,43.01783,-87.90563,187.5,0.03,191.4,2,-4,56,23.3125,23.375,23.5,23.375,23.375,23.1875,23.0625,23,22.9375,23.375,0.5432846,22.68,7,3.8,23,,,,29.1845,,,0,4
2022-07-05 03:20:52,11.52553,30.12236,115.345,15.1047,43.01786,-87.90567,186.9,0.02,22.29,2,-4,58,23.25,23.25,23.5,23.25,23.3125,23.1875,22.9375,23,22.875,23.25,-0.1810943,22.67,6,3.8,22.9,,,,29.1786,,,0,4
2022-07-05 03:10:52,11.53109,30.08847,116.7182,15.1047,43.01786,-87.90562,177.7,0.03,194.89,2,-4,58,23.1875,23.25,23.5,23.25,23.25,23.125,22.9375,23,22.75,23.25,0.9054642,22.69,6,3.8,22.9,,,,29.1756,,,0,4
2022-07-05 03:00:52,11.49776,30.0207,116.7182,13.73155,43.01779,-87.90563,176.7,0.02,220.59,2,-4,57,23.1875,23.3125,23.5,23.3125,23.25,23,23,23,22.8125,23.25,-0.5432769,22.74,6,3.8,23,,,,29.1786,,,0,4
2022-07-05 02:50:51,11.50331,30.0207,118.0913,13.73155,43.01777,-87.90564,177.2,0.02,214.49,2,-4,57,23.375,23.4375,24,23.4375,23.3125,23.0625,23.0625,23,23,23.375,0.9054613,22.77,6,3.8,23,,,,29.1815,,,0,4
2022-07-05 02:40:52,11.54775,29.95292,119.4645,15.1047,43.01777,-87.90565,177.3,0.01,102.25,2,-4,57,23.3125,23.4375,23.5,23.375,23.375,23.25,23.1875,23,23.0625,23.375,1.810916,22.78,6,3.8,23,,,,29.1845,,,0,4
2022-07-05 02:30:52,11.63107,29.91903,119.4645,12.35839,43.01778,-87.90562,180.3,0.01,213.86,2,-4,57,23.4375,23.5,23.5,23.4375,23.5,23.3125,23.25,23.5,23.1875,23.4375,-1.267631,22.79,6,3.9,23,,,,29.1845,,,0,4
2022-07-05 02:20:52,11.50887,29.88514,119.4645,12.35839,43.01779,-87.90566,175.3,0.03,194.23,2,-4,59,23.5,23.5625,24,23.4375,23.5,23.375,23.3125,23.5,23.25,23.5625,0.1810893,22.79,6,3.8,22.9,,,,29.1845,,,0,4
2022-07-05 02:10:52,11.53664,29.81736,119.4645,12.35839,43.0178,-87.90561,171.6,0.02,280.5,2,-4,59,23.4375,23.5625,24,23.4375,23.5,23.3125,23.3125,23.5,23.25,23.5,2.354159,22.78,6,3.8,22.9,,,,29.1815,,,0,4
2022-07-05 02:00:51,11.51998,29.78347,120.8376,12.35839,43.0178,-87.90558,179,0.01,270.37,2,-4,57,23.4375,23.5625,24,23.5,23.4375,23.3125,23.1875,23,23.125,23.5,-2.173054,22.75,6,3.8,22.8,,,,29.1815,,,0,4
2022-07-05 01:50:52,11.58108,29.75185,122.2108,12.35839,43.01782,-87.90556,181.8,0.01,321.44,2,-4,57,23.4375,23.625,24,23.5,23.4375,23.3125,23.375,23.5,23.25,23.5625,1.991945,22.78,6,3.8,22.9,,,,29.1756,,,0,4
2022-07-05 01:40:51,11.52553,29.68407,123.5839,13.73155,43.01779,-87.9056,178.4,0.02,124.89,2,-4,58,23.4375,23.6875,24,23.5625,23.5,23.375,23.375,23.5,23.375,23.625,1.44868,22.79,6,3.8,23,,,,29.1845,,,0,4
2022-07-05 01:30:51,11.58108,29.5824,124.9571,12.35839,43.0178,-87.90555,181.3,0.02,164.48,2,-4,58,23.6875,23.8125,24,23.6875,23.5,23.4375,23.4375,23.5,23.375,23.75,55.9552,22.79,6,3.8,23,,,,29.1786,,,0,4
2022-07-05 01:20:52,11.59219,29.51689,127.7034,13.73155,43.01782,-87.90557,187.1,0.01,65.4,2,-4,59,23.5625,23.75,24,23.625,23.4375,23.375,23.375,23.5,23.3125,23.6875,-2.71627,22.76,7,3.8,23,,,,29.1786,,,0,4
2022-07-05 01:10:52,11.55331,29.41522,129.0766,13.73155,43.01783,-87.90562,184.5,0.02,15.04,2,-4,58,23.375,23.5625,24,23.375,23.125,23,23.125,23,23.1875,23.5,2.716253,22.73,7,3.8,22.9,,,,29.1786,,,0,4
2022-07-05 01:00:52,11.59774,29.31581,131.8229,12.35839,43.01778,-87.90557,183.4,0.02,267.87,2,-4,58,23.0625,23.1875,23.5,23.125,22.8125,22.6875,22.8125,23,22.875,23.1875,0.3621645,22.71,7,3.9,22.8,,,,29.1845,,,0,4
2022-07-05 00:50:52,11.54775,29.18251,134.5692,15.1047,43.01776,-87.90562,185.6,0.02,343.36,2,-4,58,23,23.0625,23.5,23,22.625,22.5,22.8125,23,22.875,23.0625,58.30814,22.73,7,3.9,22.7,,,,29.1727,,,0,4
2022-07-05 00:40:52,11.65329,29.08311,137.3155,15.1047,43.01776,-87.9056,180.4,0.01,187.2,2,-4,58,23.0625,23.125,23.5,23.1875,22.625,22.5,22.8125,23,22.875,23.1875,55.22935,22.74,6,3.9,22.7,,,,29.1845,,,0,4
2022-07-05 00:30:52,11.56997,28.91819,140.0618,15.1047,43.01778,-87.90565,179.8,0.02,171.41,2,-4,57,23.125,23.125,23.5,23.25,22.5625,22.375,22.6875,23,22.875,23.3125,-40.9236,22.81,6,4,22.7,,,,29.1963,,,0,4
2022-07-05 00:20:52,11.65329,28.75552,142.8081,15.1047,43.01777,-87.90562,178.4,0.02,157.61,2,-4,59,23.1875,23.0625,23.5,23.375,22.5625,22.5,22.75,23,22.9375,23.4375,-57.22049,22.89,6,3.9,22.4,,,,29.2052,,,0,4
2022-07-05 00:10:52,11.62551,28.52733,145.5544,13.73155,43.01777,-87.90561,172.6,0,57.06,2,-4,60,23.4375,23.375,24,23.5,22.9375,22.9375,23.3125,23.5,23.4375,23.625,-51.7885,23.02,6,3.9,22.4,,,,29.1963,,,0,4
2022-07-05 00:00:52,11.60329,28.26752,149.6739,13.73155,43.01778,-87.90566,176.9,0.02,217.91,2,-4,58,23.8125,23.9375,24,23.75,23.6875,23.625,23.75,23.5,23.6875,23.875,-55.59197,23.13,6,3.9,22.3,,,,29.1993,,,0,4
2022-07-04 23:50:52,11.59219,27.91282,153.7934,12.35839,43.01781,-87.90562,169.2,0.02,45.87,2,-4,59,23.6875,23.875,24,23.6875,23.625,23.5625,23.625,23.5,23.5625,23.8125,0.3621716,23.18,6,4,22.2,,,,29.1904,,,0,4
2022-07-04 23:40:52,11.65329,27.59426,156.5397,12.35839,43.01779,-87.90562,174.4,0.01,11.06,2,-4,58,23.75,23.875,24,23.6875,23.5625,23.5625,23.6875,23.5,23.6875,23.875,-0.5432771,23.22,6,4,22.2,,,,29.1993,,,0,4
2022-07-04 23:20:52,11.88102,27.59426,160.6591,12.35839,43.01776,-87.90566,183.6,0.01,267.07,2,-4,59,23.875,24,24,23.75,23.5625,23.625,23.8125,23.5,23.8125,23.9375,-57.95232,23.26,6,4.2,22.2,,,,29.2052,,,30,66
2022-07-04 23:10:52,11.87546,27.68915,159.286,9.612084,43.01776,-87.90563,183.5,0.01,49.39,2,-4,57,23.75,23.875,24,23.625,23.4375,23.4375,23.625,23.5,23.625,23.8125,32.96089,23.24,6,4.1,22.3,,,,29.2081,,,30,66
2022-07-04 23:00:52,11.83658,27.78404,157.9128,8.23893,43.01776,-87.90564,184.7,0.01,64.67,2,-4,57,23.6875,23.875,24,23.5625,23.375,23.375,23.625,23.5,23.625,23.75,55.96177,23.23,6,4.1,22.2,,,,29.217,,,30,66
2022-07-04 22:50:52,11.84769,27.91282,157.9128,12.35839,43.01776,-87.90566,185.8,0.02,98.76,2,-4,58,23.625,23.75,24,23.4375,23.25,23.25,23.5,23.5,23.5,23.625,-4.346552,23.21,6,4,22.2,,,,29.2288,,,30,66
2022-07-04 22:40:52,11.85325,28.07322,157.9128,9.612084,43.01776,-87.90566,186.2,0.01,180.15,2,-4,59,23.625,23.75,23.5,23.4375,23.25,23.25,23.5,23.5,23.5625,23.6875,55.41882,23.19,6,4,22.1,,,,29.217,,,30,66
2022-07-04 22:30:51,11.8588,28.26752,157.9128,8.23893,43.01775,-87.90563,188.8,0.01,162.34,2,-4,59,23.5625,23.6875,23.5,23.375,23.1875,23.125,23.4375,23.5,23.5,23.5625,15.39424,23.16,6,4,22.1,,,,29.217,,,30,66
2022-07-04 22:20:52,11.89213,28.46182,159.286,9.612084,43.01778,-87.90563,185.2,0.01,288.95,2,-4,59,23.5,23.625,23.5,23.3125,23.1875,23.125,23.375,23.5,23.4375,23.5625,55.60135,23.14,6,4,21.9,,,,29.2229,,,30,66
2022-07-04 22:10:52,11.86436,28.65611,160.6591,8.23893,43.01774,-87.90567,185.7,0.01,325.05,2,-4,60,23.5,23.5625,23.5,23.25,23.125,23.0625,23.3125,23.5,23.375,23.5,-56.1454,23.11,7,4,21.9,,,,29.2199,,,0,4
2022-07-04 22:00:52,11.8588,28.88655,163.4054,8.23893,43.01774,-87.9057,188.6,0.02,93.31,2,-4,58,23.5,23.625,24,23.3125,23.1875,23.125,23.3125,23.5,23.4375,23.5,-1.63004,23.1,6,4.2,21.8,,,,29.2288,,,0,4
2022-07-04 21:40:51,11.6755,28.88655,181.2564,9.612084,43.01775,-87.90563,179.4,0.02,306.83,2,-4,60,23.25,23.375,23.5,23.125,23.0625,23,23.1875,23,23.1875,23.3125,1.630088,23,6,4.3,21.7,,,,29.2288,,,0,4
2022-07-04 21:26:31,11.68106,28.65611,199.1075,12.35839,43.01777,-87.90558,179.7,0.01,128.7,2,-4,60,23.125,23.25,23.5,23.0625,22.875,22.75,23.0625,23,22.9375,23.0625,-0.3622465,22.92,6,4.1,21.5,,,,29.217,,,0,4
2022-07-04 21:21:32,11.64218,28.5906,200.4806,9.612084,43.01774,-87.90563,178.2,0.01,206.94,2,-4,59,23.1875,23.25,23.5,23.0625,22.8125,22.75,22.9375,23,22.875,23.0625,0.9056148,22.91,6,4.2,21.4,,,,29.2199,,,0,4
2022-07-04 21:16:32,11.69217,28.49344,203.2269,10.98524,43.01776,-87.90561,176.6,0.01,150.88,2,-4,60,23,23.125,23,22.9375,22.75,22.625,22.875,23,22.75,22.875,0.362245,22.88,6,4.1,21.4,,,,29.2199,,,0,4
2022-07-04 21:11:32,11.87546,28.46182,204.6001,8.23893,43.01776,-87.90559,175.4,0.01,4.35,2,-4,58,23.0625,23.125,23,22.875,22.75,22.625,22.875,23,22.75,22.8125,0.9056098,22.87,5,4.2,22,,,,29.2111,,,66,0
2022-07-04 21:01:31,11.76438,28.46182,204.6001,10.98524,43.01783,-87.90562,171.9,0,0,2,-4,58,22.6875,22.6875,23,22.5625,22.625,22.5625,22.8125,22.5,22.625,22.625,-0.3622492,22.81,6,4.1,21.4,,,,29.2229,,,0,4
2022-07-04 20:56:32,11.93656,28.49344,205.9732,9.612083,43.01778,-87.90561,175.7,0,179.63,2,-4,58,22.6875,22.75,23,22.625,22.75,22.625,22.8125,22.5,22.6875,22.6875,1.08673,22.8,6,4.2,22,,,,29.2052,,,66,0
2022-07-04 20:51:32,11.64218,28.52733,203.2269,26.08994,43.01776,-87.90562,173,0.01,337.63,2,-4,58,22.6875,22.8125,23,22.625,22.75,22.6875,22.875,23,22.75,22.75,-0.1811009,22.81,7,4.3,21.3,,,,29.2347,,,0,4
2022-07-04 20:46:31,11.88657,28.65611,207.3464,13.73155,43.01779,-87.90562,170.9,0.03,333.11,2,-4,57,22.625,22.75,23,22.625,22.6875,22.5625,22.875,23,22.6875,22.6875,2.173201,22.76,5,4.2,22,,,,29.2317,,,66,0
2022-07-04 20:36:31,11.88657,28.82103,210.0927,12.35839,43.01783,-87.90556,177.1,0.01,344.58,2,-4,59,22.125,22.1875,22.5,22.1875,22.125,22,22.1875,22,22.125,22.0625,29.52085,22.64,3,3.9,21.4,,,,29.2229,,,0,4
2022-07-04 20:31:31,11.90879,28.85266,204.6001,192.2417,43.01777,-87.90562,172.3,0,73.52,2,-4,59,22.3125,22.4375,22.5,22.4375,22.4375,22.25,22.4375,22.5,22.3125,22.3125,33.32455,22.67,3,3.9,22.2,,,,29.217,,,66,0
2022-07-04 20:21:31,11.92546,28.95208,201.8537,30.2094,43.01776,-87.90565,177.8,0.01,273.53,2,-4,57,22.5,22.625,23,22.5,22.625,22.4375,22.75,22.5,22.5,22.4375,31.69531,22.66,3,4,22.9,,,,29.2199,,,66,0
2022-07-04 20:16:31,11.89213,28.95208,200.4806,16.47786,43.01777,-87.90564,178.9,0.01,110.94,2,-4,58,22.5625,22.6875,23,22.625,22.875,22.625,22.6875,22.5,22.5,22.5,34.04924,22.65,1,4,22.4,,,,29.214,,,0,4
2022-07-04 20:11:32,11.68106,28.85266,200.4806,10.98524,43.01778,-87.90564,179,0,208.42,2,-4,58,22.75,23.0625,23,22.9375,23.25,22.875,22.8125,22.5,22.6875,22.5625,39.12056,22.63,1,4,22.8,,,,29.2052,,,0,4
2022-07-04 20:06:32,11.65884,28.75552,200.4806,15.1047,43.0178,-87.90562,180.1,0.02,190.76,2,-4,60,23.25,23.5625,24,23.4375,23.3125,23.3125,23.1875,23,23.3125,23.125,40.3885,22.58,1,4,22.9,,,,29.2111,,,0,4
2022-07-04 20:01:32,11.86436,28.72163,203.2269,10.98524,43.01775,-87.90564,179.5,0.02,187.43,2,-4,57,23,23.1875,23.5,23.0625,23.0625,23.0625,23.1875,23,23.1875,23.0625,45.45973,22.45,1,3.9,22.4,,,,29.2081,,,0,4
2022-07-04 19:56:32,11.82547,28.78715,201.8538,12.35839,43.01776,-87.90561,177.1,0,349.44,2,-4,58,22.5625,22.8125,23,22.5,22.625,22.6875,22.9375,23,23,22.6875,44.0107,22.35,1,4.1,22.1,,,,29.2081,,,0,4